Location: Rimouski
(48.4330°N, 68.5170°W)
Time: 10:45:47
(UTC-04:00)

Daily predictions for brighter satellites

Satellite Brightness Start Highest point End
(mag) Time Altitude Azimuth Time Altitude Azimuth Time Altitude Azimuth
BREEZE-M DEB (TANK) 4.0 20:01:31 10° W 20:05:41 74° S 20:21:52 10° ESE
SL-16 R/B 2.2 20:08:58 10° SSW 20:14:32 62° ESE 20:20:09 10° NNE
Cosmos 1867 3.8 20:09:07 10° NW 20:14:34 63° NE 20:19:58 10° SE
SAR-Lupe-1 4.2 20:13:25 10° SSE 20:16:56 59° ENE 20:20:30 10° N
USA 234 3.4 20:10:24 10° ESE 20:16:58 88° NE 20:23:33 10° NW
Cosmos 1707 Rocket 4.4 20:16:02 10° SSW 20:20:24 57° WNW 20:24:46 10° N
Meteor 1-29 3.6 20:17:18 10° NNE 20:20:33 35° E 20:23:46 10° SSE
Cosmos 1733 Rocket 3.1 20:16:35 10° N 20:21:04 75° E 20:25:31 10° SSE
Envisat 3.0 20:16:53 10° SSE 20:21:57 73° ENE 20:27:02 10° N
CZ-2D R/B 4.3 20:19:00 10° S 20:22:46 48° W 20:26:33 10° NNW
H-2A R/B 3.8 20:20:26 10° E 20:23:13 15° NE 20:26:00 10° NNE
Cosmos 2278 Rocket 4.0 20:26:41 10° N 20:30:37 19° NE 20:34:32 10° E
Cosmos 1844 Rocket 3.7 20:27:40 10° NNW 20:32:42 33° NE 20:37:35 10° ESE
Cosmos 1862 Rocket 3.6 20:29:33 10° S 20:33:58 64° E 20:38:26 10° NNE
Cosmos 1933 3.4 20:30:07 10° S 20:34:04 57° E 20:38:02 10° NNE
Cosmos 1634 Rocket 4.4 20:29:30 10° SSW 20:35:48 70° W 20:42:09 10° N
Abrixas rocket 2.1 20:32:39 10° W 20:35:57 88° S 20:39:14 10° E
Helios 1A 3.4 20:31:51 10° S 20:36:05 68° WSW 20:40:20 10° NNW
SJ-11-01 4.3 20:36:41 10° SSE 20:41:21 87° WSW 20:46:04 10° NNW
CENTAUR R/B 4.2 20:36:19 10° W 20:42:19 39° NNW 20:49:08 10° NE
USA 186 3.8 20:43:11 10° SSW 20:45:38 26° W 20:48:14 10° NW
Cosmos 1862 4.0 20:43:15 10° NNW 20:47:13 58° W 20:51:11 10° S
ERS-1 Rocket 3.1 20:42:18 10° SSE 20:47:15 62° ENE 20:52:14 10° N
CZ-4B DEB 3.3 20:45:32 10° S 20:48:31 54° W 20:51:31 10° NNW
Cosmos 1655 Rocket 4.4 20:43:35 10° NNW 20:49:57 69° W 20:56:15 10° S
YAOGAN 6 2.6 20:47:03 10° SSE 20:50:39 69° ENE 20:54:14 10° N
SeaSat 1 3.3 20:48:08 13° ESE 20:52:08 39° NE 20:56:42 10° NNW
Cosmos 1703 Rocket 4.0 20:50:22 10° SSE 20:54:32 41° E 20:58:41 10° NNE
Cosmos 2266 Rocket 4.1 20:50:02 10° N 20:56:17 65° ENE 21:02:31 10° SSE
Cosmos 2219 Rocket 3.7 20:55:57 15° ESE 20:57:26 16° E 21:00:43 10° ENE
Meteor 2-10 Rocket 3.8 20:53:53 10° S 20:59:39 68° E 21:05:23 10° NNE
Meteor 1-26 Rocket 4.3 20:54:54 10° S 21:00:30 60° E 21:06:14 10° NNE
Cosmos 1782 4.3 21:00:38 17° ESE 21:01:56 20° E 21:04:54 10° NE
USA 229 DEB 4.0 20:55:36 10° S 21:02:00 45° ESE 21:08:33 10° NE
USA 229 4.0 20:55:44 10° S 21:02:07 45° ESE 21:08:39 10° NE
Cosmos 1939 Rocket 3.9 21:05:58 10° S 21:09:49 43° W 21:13:39 10° NNW
SPOT 1/Viking Rocket 4.2 21:07:02 18° SE 21:10:31 42° ENE 21:15:25 10° N
YAOGAN 11 4.1 21:09:51 18° SSE 21:13:01 66° ENE 21:17:19 10° N
Cosmos 1777 Rocket 4.0 21:08:49 10° NNW 21:14:07 71° ENE 21:17:47 20° SSE
Cosmos 2221 Rocket 3.8 21:10:49 15° SSE 21:14:18 49° E 21:18:36 10° NNE
Cosmos 2263 Rocket 3.5 21:09:36 10° NW 21:14:38 35° WSW 21:19:38 10° S
SPOT 5 2.9 21:11:25 19° SE 21:14:44 58° ENE 21:19:14 10° N
Helios 1B rocket 3.8 21:14:53 10° N 21:18:46 42° WNW 21:22:38 10° SW
Lacrosse 4 Rocket 4.2 21:18:01 10° W 21:19:45 12° WSW 21:21:29 10° SW
Atlas Centaur 2 4.2 21:15:42 10° SW 21:20:26 19° S 21:22:34 17° SSE
USA 267 3.7 21:16:48 10° NE 21:23:15 64° NNW 21:29:43 10° WSW
Cosmos 2237 4.3 21:20:34 10° S 21:26:10 57° ESE 21:31:46 10° NE
MOS 1-B Rocket 3.9 21:22:24 19° SSE 21:26:38 71° ENE 21:32:13 10° N
Cosmos 2322 Rocket 3.6 21:23:29 10° WSW 21:28:47 41° NW 21:34:07 10° NNE
Cosmos 1633 3.7 21:26:28 10° NNE 21:29:41 28° ENE 21:30:27 26° E
SL-08 RB Rocket 3.8 21:29:21 26° SSE 21:31:53 65° ENE 21:36:24 10° N
Meteor 1-11 Rocket 4.5 21:28:23 10° N 21:33:28 36° ENE 21:35:59 24° ESE
CZ-4C R/B 3.2 21:27:15 10° NW 21:33:57 55° NE 21:39:16 20° ESE
COSMOS 2428 2.8 21:29:56 10° S 21:35:25 52° ESE 21:40:57 10° NE
Cosmos 2360 Rocket 2.3 21:31:13 10° SSW 21:36:53 78° WNW 21:42:36 10° NNE
H-2A R/B 2.9 21:37:08 27° ESE 21:38:39 36° ENE 21:42:40 10° N
ATLAS 3B R/B 4.4 21:33:41 10° NW 21:39:32 27° NNE 21:45:08 10° ENE
MetOp-B 4.4 21:39:00 18° S 21:43:03 67° WSW 21:48:24 10° NNW
Meteor 1-25 Rocket 4.3 21:38:41 10° NNW 21:44:17 74° W 21:48:11 20° S
Cosmos 1844 3.7 21:39:20 10° NNW 21:45:04 79° ENE 21:47:58 30° SE
Landsat 7 4.0 21:46:15 32° SE 21:48:12 56° ENE 21:52:53 10° N
ATLAS 5 CENTAUR R/B 3.8 21:43:45 10° WNW 21:48:55 30° WSW 21:53:36 13° S
Cosmos 2322 4.0 21:46:28 10° SW 21:52:10 71° WNW 21:57:53 10° NNE
SL-16 R/B 4.3 21:54:45 11° E 21:54:45 11° E 21:55:13 10° ENE
Meteor 1-20 Rocket 4.5 21:50:55 10° NNW 21:56:27 67° W 22:00:07 22° S
Cosmos 1606 2.6 21:56:20 51° SE 21:57:01 63° E 22:00:47 10° NNE
Cosmos 1300 Rocket 4.2 21:54:30 10° N 21:58:37 39° ENE 21:59:26 36° ESE
SL-16 R/B 4.3 21:54:12 10° WSW 21:59:04 28° NW 22:03:58 10° NNE
ARGOS 3.5 21:56:22 23° S 21:59:44 62° WSW 22:05:06 10° NNW
USA 234 4.3 21:56:41 19° S 22:00:28 33° SW 22:06:16 10° WNW
Cosmos 1536 3.9 21:57:18 10° N 22:00:53 29° ENE 22:01:14 29° E
H-2A R/B 1.9 21:59:46 34° SSE 22:01:59 89° WSW 22:06:57 10° NNW
USA 245 4.5 21:59:28 21° S 22:03:03 57° W 22:07:42 10° NNW
Terra 2.0 22:01:51 39° SE 22:03:20 56° ENE 22:08:00 10° N
S3M 4.2 22:03:15 33° SE 22:05:39 50° E 22:11:38 10° NNE
Okean 2 Rocket 4.0 22:03:16 10° NNW 22:07:37 46° W 22:10:03 23° SSW
DMSP B5D2-2 4.3 22:02:48 10° NNE 22:07:58 51° E 22:09:26 39° SSE
Okean 1-7 3.9 22:08:38 15° SSW 22:12:09 48° WNW 22:16:27 10° N
Abrixas rocket 2.4 22:09:28 10° W 22:12:17 60° WSW 22:12:17 60° WSW
Cosmos 2333 4.2 22:08:30 10° SSW 22:14:14 88° ESE 22:20:04 10° NNE
Cosmos 2237 Rocket 2.7 22:14:04 37° ESE 22:14:37 38° ESE 22:19:50 10° NE
Meteor 2-6 Rocket 4.3 22:11:16 27° S 22:14:43 83° E 22:20:41 10° NNE
CZ-4C R/B 4.4 22:15:05 29° ENE 22:15:05 29° ENE 22:18:15 10° N
Cosmos 2333 Rocket 2.4 22:13:24 38° SSE 22:15:07 51° ESE 22:20:42 10° NE
Cosmos 2278 Rocket 2.2 22:10:01 10° NNW 22:15:42 76° ENE 22:17:43 42° SE
Spot 4 4.4 22:15:33 37° E 22:16:36 43° ENE 22:21:07 10° N
Cosmos 1844 Rocket 3.3 22:11:26 10° NW 22:16:48 49° WSW 22:19:16 29° SSW
Cosmos 1570 Rocket 3.9 22:17:38 38° S 22:19:36 69° ESE 22:24:53 10° NNE
Cosmos 1378 Rocket 4.4 22:26:42 34° E 22:26:42 34° E 22:30:24 10° NNE
CZ-4 R/B 4.2 22:22:19 10° NNE 22:26:57 46° E 22:27:11 46° ESE
Cosmos 1937 Rocket 3.9 22:22:43 10° NNW 22:27:52 51° ENE 22:29:09 41° ESE
PSLV R/B 4.3 22:29:04 38° N 22:29:04 38° N 22:30:57 10° N
Cosmos 2084 3.3 22:24:45 10° NW 22:28:33 61° SW 22:28:36 61° SW
Cosmos 2208 Rocket 3.9 22:26:54 40° S 22:28:48 75° ESE 22:34:08 10° NNE
SeaSat 1 3.4 22:27:56 29° SSW 22:29:39 38° WSW 22:34:17 10° NW
SWAS 4.4 22:26:46 10° NNW 22:31:06 71° WSW 22:31:35 63° SSW
deb Chang Zheng 4 3.4 22:29:25 10° NNE 22:33:50 72° ESE 22:34:10 68° SE
Cosmos 1745 Rocket 4.0 22:28:35 10° N 22:34:57 88° E 22:37:19 42° S
Meteor 1-5 Rocket 4.3 22:31:19 10° N 22:36:56 63° ENE 22:38:22 48° SE
Cosmos 1782 4.1 22:36:14 24° SW 22:38:03 37° WNW 22:41:49 10° N
Cosmos 990 Rocket 4.3 22:33:23 10° NNW 22:38:26 52° ENE 22:39:27 45° E
Cosmos 858 Rocket 4.5 22:33:34 10° NNW 22:38:48 73° ENE 22:39:51 55° SE
Cosmos 2150 Rocket 4.2 22:35:06 10° NNW 22:40:33 67° ENE 22:41:46 51° ESE
Cosmos 2219 Rocket 2.1 22:37:34 29° SSW 22:40:35 87° WNW 22:46:16 10° NNE
CARTOSAT-1 3.9 22:46:03 52° SW 22:46:36 57° W 22:50:53 10° NNW
NOSS 3-1 (C) 3.3 22:42:31 19° SW 22:46:55 85° SE 22:53:37 10° NE
Okean 3 3.7 22:50:28 54° ENE 22:50:28 54° ENE 22:54:05 10° NNE
Cosmos 1898 Rocket 3.4 22:46:01 10° NNW 22:51:14 80° WSW 22:52:04 62° S
Iridium 4 Rocket 3.0 22:48:32 10° N 22:52:42 70° W 22:52:52 68° WSW
USA 229 DEB 4.4 22:46:14 10° WSW 22:52:55 53° NW 22:59:48 10° NE
USA 229 4.4 22:46:20 10° WSW 22:53:02 54° NW 22:59:54 10° NE
Cosmos 1346 Rocket 3.2 22:53:59 55° W 22:54:14 56° WNW 22:58:10 10° N
Meteor 1-27 Rocket 3.8 22:53:16 39° SSW 22:55:25 72° WNW 23:01:00 10° N
Cosmos 2292 Rocket 4.5 22:52:53 10° N 22:54:33 29° N 22:54:33 29° N
Okean 1 Rocket 3.1 22:55:15 10° NNW 22:59:41 69° W 22:59:53 68° WSW
ATLAS CENTAUR R/B 3.7 23:02:51 13° ENE 23:02:51 13° ENE 23:03:27 10° ENE
Cosmos 1763 Rocket 4.3 23:01:50 35° E 23:01:50 35° E 23:05:58 10° NE
NOSS 3-1 (A) 3.3 23:00:30 37° SSW 23:03:02 82° SE 23:09:44 10° NE
Cosmos 1455 Rocket 4.3 22:59:13 10° N 23:03:04 32° ENE 23:03:04 32° ENE
ASTEX 1 4.3 23:02:21 35° SW 23:03:43 43° W 23:08:29 10° NNW
IGS 5A 4.3 23:03:41 39° WSW 23:03:52 39° W 23:07:49 10° NNW
NOSS 0 Rocket 3.8 23:01:38 36° SSW 23:04:19 86° WNW 23:10:31 10° NNE
Cosmos 1633 4.5 23:01:37 10° NW 23:04:32 22° W 23:04:45 22° W
ATLAS 2AS CENTAUR R/B 3.8 23:04:53 31° ESE 23:04:53 31° ESE 23:11:39 10° NE
Cosmos 1674 Rocket 4.0 23:04:26 50° WSW 23:04:58 53° WNW 23:09:13 10° N
CZ-2C R/B 4.1 23:04:49 29° ENE 23:05:25 30° ENE 23:09:44 10° N
USA 267 4.4 22:59:39 10° ENE 23:05:44 43° N 23:11:49 10° WNW
DELTA 2 DEB (DPAF) 4.1 23:06:01 72° WSW 23:06:07 72° WSW 23:10:36 10° NNW
Cosmos 2297 3.6 23:04:54 10° NNW 23:10:40 88° WSW 23:11:30 66° SSE
Cosmos 2369 Rocket 4.0 23:06:43 10° N 23:11:12 24° NE 23:13:59 17° E
Cosmos 1812 4.1 23:14:15 31° NE 23:14:15 31° NE 23:16:38 10° NNE
H-2A R/B 3.6 23:14:15 26° WSW 23:14:44 26° W 23:18:26 10° NW
Cosmos 1975 4.1 23:11:13 10° N 23:14:12 33° NE 23:14:12 33° NE
Cosmos 1814 Rocket 3.9 23:19:09 68° E 23:19:09 68° E 23:24:05 10° NNE
COSMOS 2428 4.3 23:14:52 10° WSW 23:19:57 33° NW 23:25:05 10° NNE
Cosmos 1943 Rocket 4.4 23:18:39 10° N 23:22:34 18° NE 23:26:26 10° E
CZ-4C R/B 3.3 23:15:53 10° NW 23:22:40 49° WSW 23:24:27 41° SSW
Cosmos 2315 Rocket 3.9 23:24:11 62° SSE 23:25:13 77° E 23:31:27 10° NNE
ALOS 2 3.3 23:27:19 45° NE 23:27:19 45° NE 23:31:12 10° N
SL-24 DEB 4.3 23:28:33 71° W 23:28:33 71° W 23:33:06 10° N
Cosmos 1975 Rocket 3.3 23:29:05 69° NNE 23:29:05 69° NNE 23:33:04 10° N
Cosmos 468 Rocket 4.1 23:29:18 63° WSW 23:30:03 75° WNW 23:35:25 10° NNE
Cosmos 1980 4.1 23:28:48 35° WSW 23:31:04 59° WNW 23:36:41 10° NNE
ATLAS 3B R/B 2.9 23:24:44 10° NW 23:31:37 63° NE 23:33:56 41° ESE
SL-16 R/B 2.1 23:36:36 70° ESE 23:36:38 70° ESE 23:42:19 10° NNE
CZ-4B R/B 4.0 23:33:29 10° N 23:38:03 48° WNW 23:38:51 44° W
USA 81 3.9 23:38:53 85° SSE 23:39:02 88° E 23:44:21 10° N
Terra 3.7 23:40:44 19° WSW 23:41:26 20° W 23:44:56 10° NW
H-2A R/B 4.3 23:40:23 11° WSW 23:42:07 12° W 23:44:13 10° WNW
Cosmos 841 Rocket 3.5 23:45:49 65° ENE 23:45:49 65° ENE 23:50:32 10° NNE
Cosmos 2184 Rocket 4.0 23:46:49 10° N 23:53:13 74° E 23:54:09 63° SE
Okean 1 4.4 23:54:42 42° NNE 23:54:42 42° NNE 23:57:28 10° NNE
